Tracking 19219 objects as of 20-Jul-2018
HD Live streaming from Space Station
objects crossing your sky now

COSMOS 2340

Track COSMOS 2340 now!
COSMOS 2340 is classified as:


NORAD ID: 24761
Int'l Code: 1997-015A
Perigee: 3,310.5 km
Apogee: 37,012.7 km
Inclination: 67.3 °
Period: 716.9 minutes
Semi major axis: 26532 km
RCS: 6.3095 m2 (large)
Launch date: April 9, 1997
Source: Commonwealth of Independent States (former USSR) (CIS)
Launch site: PLESETSK MISSILE AND SPACE COMPLEX (PKMTR)
aabbcc
Your satellite tracking list
Your tracking list is empty




NASA's NSSDC Master Catalog

Two Line Element Set (TLE):
1 24761U 97015A   18200.21008536 -.00000391 +00000-0 +00000-0 0  9992
2 24761 067.2820 033.9479 6351079 192.2189 138.9141 02.00878152155871
Source of the keplerian elements: AFSPC